Location: Kergrach
(48.3833°N, 4.5167°W)
Time: 11:31:45
(UTC+00:00)

Cosmos 1656 Rocket - Pass Details

Date: 18 February 2020
Orbit: 794 x 848 km, 71.1° (Epoch: 08 April)

Event Time Altitude Azimuth Distance (km) Brightness Sun altitude
Rises 06:36:50 0° 327° (NNW) 3,406 6.5 -8.0°
Reaches altitude 10° 06:39:22 10° 322° (NW) 2,472 5.7 -7.6°
Maximum altitude 06:44:44 44° 252° (WSW) 1,154 4.1 -6.7°
Drops below altitude 10° 06:50:04 10° 181° (S) 2,466 6.3 -5.8°
Sets 06:52:36 0° 175° (S) 3,395 7.1 -5.4°
